User: anonymous   Login
Location: Caltech
(34.1382°N, 118.1253°W)
Time: 10:35:02
(UTC-07:00)
Language:

Aureole 3 Rocket - Orbit

View from above orbital plane
View from above orbital plane
View from above satellite
View from above satellite

Ground track
Ground track

The orbit data is extracted from the following two-line orbital elements,

1 12849U 81094B   17114.83361371 +.00000992 +00000-0 +91136-4 0  9996
2 12849 082.4952 207.6769 0903164 198.4080 158.2321 13.50103278734721
Epoch (UTC): 24 April 2017 20:00:24
Eccentricity: 0.0903164
inclination: 82.4952°
perigee height: 399 km
apogee height: 1745 km
right ascension of ascending node: 207.6769°
argument of perigee: 198.4080°
revolutions per day: 13.50103278
mean anomaly at epoch: 158.2321°
orbit number at epoch: 73472

The dashed part of the orbit path shows where the satellite is in the earth's shadow,  

DLR